This demonstration page uses our WeatherBlox Daily Observations layout. Learn more.

Hourly Observations for May 15, 2020

Temp ( °F °C ) Dew Point ( °F °C ) Humidity (%) Winds ( mph kmh ) Pressure ( in mb ) Visibility ( mi km ) Precip ( " mm )
12:15 am 00:15 Clear 61 16 61 16 100 100 SSW 3 6 30.08 1019 10 16.0934 0 0
12:35 am 00:35 Clear 61 16 61 16 100 100 Calm 30.08 1019 10 16.0934 0 0
12:55 am 00:55 Clear 61 16 59 15 94 94 SSW 5 7 30.07 1018 10 16.0934 0 0
1:15 am 01:15 Clear 61 16 61 16 100 100 SW 5 7 30.06 1018 10 16.0934 0 0
1:35 am 01:35 Clear 59 15 59 15 100 100 SW 3 6 30.06 1018 10 16.0934 0 0
1:55 am 01:55 Partly Cloudy 59 15 59 15 100 100 SW 3 6 30.06 1018 10 16.0934 0 0
2:15 am 02:15 Partly Cloudy 61 16 59 15 94 94 S 5 7 30.05 1018 10 16.0934 0 0
2:35 am 02:35 Partly Cloudy 61 16 61 16 100 100 SSW 5 7 30.04 1017 10 16.0934 0 0
2:55 am 02:55 Mostly Cloudy 61 16 61 16 100 100 SSW 5 7 30.03 1017 10 16.0934 0 0
3:15 am 03:15 Cloudy 61 16 61 16 100 100 Calm 30.04 1017 10 16.0934 0 0
3:35 am 03:35 Cloudy 61 16 61 16 100 100 SW 3 6 30.04 1017 10 16.0934 0 0
3:55 am 03:55 Cloudy 61 16 61 16 100 100 WSW 5 7 30.04 1017 10 16.0934 0 0
4:15 am 04:15 Cloudy 63 17 61 16 94 94 WSW 5 7 30.04 1017 10 16.0934 0 0
4:35 am 04:35 Cloudy 61 16 61 16 100 100 SW 5 7 30.04 1017 10 16.0934 0 0
4:55 am 04:55 Mostly Cloudy 61 16 61 16 100 100 Calm 30.04 1017 10 16.0934 0 0
5:15 am 05:15 Cloudy 61 16 61 16 100 100 Calm 30.04 1017 10 16.0934 0 0
5:35 am 05:35 Mostly Cloudy 61 16 59 15 94 94 ESE 3 6 30.05 1018 10 16.0934 0 0
5:55 am 05:55 Partly Cloudy 61 16 59 15 94 94 S 6 9 30.06 1018 10 16.0934 0 0
6:15 am 06:15 Sunny 59 15 59 15 100 100 SW 3 6 30.06 1018 10 16.0934 0 0
6:35 am 06:35 Sunny 59 15 59 15 100 100 S 6 9 30.07 1018 10 16.0934 0 0
6:55 am 06:55 Sunny 59 15 59 15 100 100 SSW 5 7 30.08 1019 10 16.0934 0 0
7:15 am 07:15 Sunny 59 15 59 15 100 100 SSW 5 7 30.09 1019 10 16.0934 0 0
7:35 am 07:35 Sunny 61 16 61 16 100 100 Calm 30.09 1019 10 16.0934 0 0
7:55 am 07:55 Sunny 63 17 61 16 94 94 S 5 7 30.1 1019 10 16.0934 0 0
8:15 am 08:15 Sunny 64 18 61 16 88 88 Calm 30.09 1019 10 16.0934 0 0
8:35 am 08:35 Sunny 64 18 61 16 88 88 Calm 30.09 1019 10 16.0934 0 0
8:55 am 08:55 Sunny 66 19 63 17 88 88 Calm 30.09 1019 10 16.0934 0 0
9:15 am 09:15 Sunny 70 21 63 17 78 78 S 5 7 30.08 1019 10 16.0934 0 0
9:35 am 09:35 Sunny 70 21 63 17 78 78 SSW 5 7 30.08 1019 10 16.0934 0 0
9:55 am 09:55 Sunny 70 21 63 17 78 78 SSE 5 7 30.07 1018 10 16.0934 0 0
10:15 am 10:15 Sunny 72 22 64 18 78 78 SSW 6 9 30.07 1018 10 16.0934 0 0
10:35 am 10:35 Sunny 73 23 64 18 74 74 S 8 13 30.06 1018 10 16.0934 0 0
10:55 am 10:55 Sunny 75 24 64 18 69 69 S 9 15 30.06 1018 10 16.0934 0 0
11:15 am 11:15 Sunny 77 25 63 17 61 61 S 9 15 30.05 1018 10 16.0934 0 0
11:35 am 11:35 Sunny 77 25 63 17 61 61 S 10 17 30.03 1017 10 16.0934 0 0
11:55 am 11:55 Sunny 81 27 61 16 51 51 SW 10 17 30.03 1017 10 16.0934 0 0
12:15 pm 12:15 Sunny 81 27 61 16 51 51 WSW 14 22 30.02 1017 10 16.0934 0 0
12:35 pm 12:35 Sunny 81 27 61 16 51 51 WSW 8 13 30.01 1016 10 16.0934 0 0
12:55 pm 12:55 Sunny 82 28 61 16 48 48 WSW 8 13 30 1016 10 16.0934 0 0
1:15 pm 13:15 Sunny 82 28 61 16 48 48 SW 9 15 29.99 1016 10 16.0934 0 0
1:35 pm 13:35 Sunny 82 28 61 16 48 48 SW 12 19 29.98 1015 10 16.0934 0 0
1:55 pm 13:55 Sunny 84 29 61 16 45 45 SW 8 13 29.97 1015 10 16.0934 0 0
2:15 pm 14:15 Sunny 86 30 61 16 43 43 WSW 7 11 29.96 1014 10 16.0934 0 0
2:35 pm 14:35 Partly Cloudy 86 30 61 16 43 43 SW 16 26 29.95 1014 10 16.0934 0 0
2:55 pm 14:55 Partly Cloudy 86 30 61 16 43 43 S 12 19 29.94 1014 10 16.0934 0 0
3:15 pm 15:15 Partly Cloudy 86 30 59 15 40 40 SSW 18 30 29.93 1013 10 16.0934 0 0
3:35 pm 15:35 Sunny 86 30 59 15 40 40 SSW 14 22 29.92 1013 10 16.0934 0 0
3:55 pm 15:55 Partly Cloudy 86 30 59 15 40 40 SSW 17 28 29.91 1013 10 16.0934 0 0
4:15 pm 16:15 Partly Cloudy 86 30 59 15 40 40 S 13 20 29.9 1012 10 16.0934 0 0
4:35 pm 16:35 Partly Cloudy 86 30 59 15 40 40 SSW 17 28 29.89 1012 10 16.0934 0 0
4:55 pm 16:55 Sunny 86 30 59 15 40 40 WSW 12 19 29.89 1012 10 16.0934 0 0
5:15 pm 17:15 Sunny 86 30 59 15 40 40 SSW 14 22 29.88 1012 10 16.0934 0 0
5:35 pm 17:35 Sunny 86 30 59 15 40 40 S 20 31 29.88 1012 10 16.0934 0 0
5:55 pm 17:55 Sunny 86 30 57 14 38 38 SW 17 28 29.88 1012 10 16.0934 0 0
6:15 pm 18:15 Sunny 86 30 59 15 40 40 SSW 15 24 29.88 1012 10 16.0934 0 0
6:35 pm 18:35 Sunny 84 29 57 14 40 40 SW 15 24 29.87 1011 10 16.0934 0 0
6:55 pm 18:55 Sunny 82 28 55 13 40 40 SSW 15 24 29.87 1012 10 16.0934 0 0
7:15 pm 19:15 Sunny 82 28 55 13 40 40 SSW 12 19 29.87 1012 10 16.0934 0 0
7:35 pm 19:35 Sunny 81 27 57 14 45 45 SSW 14 22 29.87 1012 10 16.0934 0 0
7:55 pm 19:55 Sunny 81 27 57 14 45 45 SSW 12 19 29.87 1012 10 16.0934 0 0
8:15 pm 20:15 Sunny 79 26 57 14 48 48 SSW 10 17 29.87 1012 10 16.0934 0 0
8:35 pm 20:35 Clear 79 26 57 14 48 48 SW 10 17 29.88 1012 10 16.0934 0 0
8:55 pm 20:55 Clear 79 26 55 13 45 45 SW 9 15 29.89 1012 10 16.0934 0 0
9:15 pm 21:15 Clear 79 26 55 13 45 45 SW 7 11 29.9 1013 10 16.0934 0 0
9:35 pm 21:35 Partly Cloudy 77 25 55 13 47 47 SW 7 11 29.91 1013 10 16.0934 0 0
9:55 pm 21:55 Partly Cloudy 77 25 55 13 47 47 SW 8 13 29.92 1013 10 16.0934 0 0
10:15 pm 22:15 Mostly Cloudy 77 25 55 13 47 47 WSW 8 13 29.93 1014 10 16.0934 0 0
10:35 pm 22:35 Mostly Cloudy 77 25 55 13 47 47 WSW 7 11 29.93 1014 10 16.0934 0 0
10:55 pm 22:55 Cloudy 77 25 57 14 51 51 W 8 13 29.94 1014 10 16.0934 0 0
11:15 pm 23:15 Cloudy 75 24 57 14 54 54 WSW 8 13 29.95 1014 10 16.0934 0 0
11:35 pm 23:35 Cloudy 75 24 57 14 54 54 W 7 11 29.95 1014 10 16.0934 0 0
11:55 pm 23:55 Cloudy 73 23 57 14 57 57 W 5 7 29.95 1014 10 16.0934 0 0

Powered by AerisWeather